SWA631 MMSD-KSNA

Flight info

Callsign SWA631
Flight time 2h 8m
Altitude 40000
Route ANEGO1A ANEGO UL312 TAGMO UT50 ASUTA DCT JLI V458 PACIF DCT SLI
Aircraft B737/M-SDE2E3GIJ4RWZ/LB1D1

Departure

Time 2026-04-25 19:47
Airport Los Cabos International Airport (MMSD)

Arrival

Time 2026-04-25 21:56
Airport John Wayne Orange County International Airport (KSNA)
Time Latitude Longitude Altitude Speed Heading
2026-04-25 19:28 23.16083 -109.71833 366 ft 0 kts 84°
2026-04-25 19:40 23.16081 -109.71847 366 ft 4 kts 77°
2026-04-25 19:40 23.16071 -109.71872 368 ft 4 kts 41°
2026-04-25 19:40 23.16052 -109.71882 366 ft 1 kts 354°
2026-04-25 19:41 23.16051 -109.71882 366 ft 0 kts 354°
2026-04-25 19:44 23.16062 -109.71883 367 ft 2 kts 354°
2026-04-25 19:44 23.16111 -109.71889 367 ft 9 kts 350°
2026-04-25 19:44 23.16142 -109.71956 369 ft 15 kts 286°
2026-04-25 19:44 23.16234 -109.71986 373 ft 15 kts 353°
2026-04-25 19:45 23.16348 -109.72001 380 ft 17 kts 353°
2026-04-25 19:45 23.16460 -109.72014 386 ft 16 kts 353°
2026-04-25 19:45 23.16558 -109.72045 390 ft 14 kts 293°
2026-04-25 19:45 23.16554 -109.72151 390 ft 14 kts 264°
2026-04-25 19:46 23.16536 -109.72226 391 ft 5 kts 189°
2026-04-25 19:46 23.16497 -109.72223 390 ft 6 kts 176°
2026-04-25 19:46 23.16312 -109.72203 386 ft 63 kts 174°
2026-04-25 19:46 23.15631 -109.72124 368 ft 130 kts 174°
2026-04-25 19:47 23.14610 -109.72023 745 ft 153 kts 171°
2026-04-25 19:47 23.13479 -109.71863 1300 ft 170 kts 170°
2026-04-25 19:47 23.12259 -109.71728 1956 ft 178 kts 172°
2026-04-25 19:47 23.10972 -109.71577 2528 ft 199 kts 173°
2026-04-25 19:48 23.09491 -109.71406 2766 ft 228 kts 174°
2026-04-25 19:48 23.07802 -109.71221 3035 ft 257 kts 174°
2026-04-25 19:48 23.05983 -109.71026 3724 ft 267 kts 175°
2026-04-25 19:48 23.04115 -109.71061 4479 ft 272 kts 197°
2026-04-25 19:49 23.02478 -109.72049 5313 ft 272 kts 226°
2026-04-25 19:49 23.01720 -109.73130 5848 ft 274 kts 244°
2026-04-25 19:49 23.01295 -109.75827 6951 ft 275 kts 280°
2026-04-25 19:49 23.01988 -109.77720 7817 ft 277 kts 304°
2026-04-25 19:50 23.04589 -109.80901 9586 ft 286 kts 313°
2026-04-25 19:50 23.05972 -109.82467 10472 ft 292 kts 312°
2026-04-25 19:50 23.07429 -109.84142 10766 ft 319 kts 311°
2026-04-25 19:51 23.09006 -109.85985 10993 ft 345 kts 311°
2026-04-25 19:51 23.10664 -109.87938 11581 ft 355 kts 311°
2026-04-25 19:51 23.12361 -109.89907 12376 ft 360 kts 315°
2026-04-25 19:51 23.14399 -109.91530 13175 ft 366 kts 327°
2026-04-25 19:52 23.16589 -109.92966 13992 ft 369 kts 327°
2026-04-25 19:52 23.18814 -109.94399 14673 ft 375 kts 328°
2026-04-25 19:52 23.21073 -109.95858 15354 ft 380 kts 327°
2026-04-25 19:52 23.23351 -109.97342 16079 ft 384 kts 327°
2026-04-25 19:53 23.25652 -109.98853 16781 ft 388 kts 327°
2026-04-25 19:53 23.27973 -110.00387 17483 ft 393 kts 327°
2026-04-25 19:53 23.30322 -110.01946 18175 ft 397 kts 326°
2026-04-25 19:53 23.32661 -110.03501 18758 ft 401 kts 326°
2026-04-25 19:54 23.35054 -110.05093 19364 ft 404 kts 326°
2026-04-25 19:54 23.37467 -110.06699 19975 ft 407 kts 326°
2026-04-25 19:54 23.39895 -110.08316 20575 ft 410 kts 326°
2026-04-25 19:54 23.41516 -110.09396 20964 ft 413 kts 326°
2026-04-25 19:55 23.44782 -110.11573 21719 ft 417 kts 325°
2026-04-25 19:55 23.47267 -110.13230 22271 ft 421 kts 325°
2026-04-25 19:55 23.49776 -110.14903 22835 ft 424 kts 325°
2026-04-25 19:55 23.52311 -110.16594 23353 ft 428 kts 325°
2026-04-25 19:56 23.54759 -110.18432 23800 ft 427 kts 315°
2026-04-25 19:56 23.56923 -110.20651 24264 ft 427 kts 311°
2026-04-25 19:56 23.59005 -110.22969 24731 ft 428 kts 310°
2026-04-25 19:56 23.61074 -110.25314 25171 ft 430 kts 310°
2026-04-25 19:57 23.63163 -110.27665 25595 ft 433 kts 310°
2026-04-25 19:57 23.65284 -110.30020 26054 ft 435 kts 310°
2026-04-25 19:57 23.67424 -110.32368 26517 ft 436 kts 310°
2026-04-25 19:57 23.69575 -110.34712 26937 ft 439 kts 310°
2026-04-25 19:58 23.71748 -110.37074 27331 ft 442 kts 310°
2026-04-25 19:58 23.73931 -110.39443 27711 ft 444 kts 310°
2026-04-25 19:58 23.76127 -110.41827 28096 ft 446 kts 310°
2026-04-25 19:58 23.78334 -110.44226 28476 ft 448 kts 310°
2026-04-25 19:59 23.80518 -110.46602 28830 ft 451 kts 310°
2026-04-25 19:59 23.82745 -110.49027 29186 ft 453 kts 310°
2026-04-25 19:59 23.84985 -110.51468 29508 ft 455 kts 310°
2026-04-25 19:59 23.87232 -110.53916 29838 ft 457 kts 310°
2026-04-25 20:00 23.89497 -110.56383 30147 ft 460 kts 310°
2026-04-25 20:00 23.91037 -110.57972 30365 ft 461 kts 312°
2026-04-25 20:00 23.94278 -110.61043 31058 ft 457 kts 314°
2026-04-25 20:00 23.96717 -110.63257 31630 ft 452 kts 314°
2026-04-25 20:01 24.01526 -110.67609 32680 ft 446 kts 314°
2026-04-25 20:01 24.03870 -110.69755 33167 ft 444 kts 314°
2026-04-25 20:01 24.06224 -110.71925 33668 ft 440 kts 313°
2026-04-25 20:02 24.08558 -110.74087 34159 ft 437 kts 313°
2026-04-25 20:02 24.10871 -110.76238 34581 ft 434 kts 313°
2026-04-25 20:02 24.13166 -110.78375 34993 ft 432 kts 313°
2026-04-25 20:02 24.15450 -110.80505 35393 ft 429 kts 313°
2026-04-25 20:03 24.17721 -110.82623 35771 ft 427 kts 312°
2026-04-25 20:03 24.19980 -110.84732 36125 ft 426 kts 312°
2026-04-25 20:03 24.22227 -110.86829 36503 ft 423 kts 311°
2026-04-25 20:03 24.24460 -110.88913 36912 ft 420 kts 311°
2026-04-25 20:04 24.26652 -110.90959 37285 ft 417 kts 311°
2026-04-25 20:04 24.28861 -110.93024 37567 ft 417 kts 311°
2026-04-25 20:04 24.31067 -110.95087 37855 ft 416 kts 311°
2026-04-25 20:04 24.33266 -110.97145 38202 ft 414 kts 311°
2026-04-25 20:05 24.35448 -110.99185 38570 ft 411 kts 311°
2026-04-25 20:05 24.37619 -111.01217 38864 ft 409 kts 311°
2026-04-25 20:05 24.39787 -111.03248 39059 ft 409 kts 311°
2026-04-25 20:05 24.41951 -111.05277 39217 ft 410 kts 311°
2026-04-25 20:06 24.44127 -111.07320 39384 ft 412 kts 311°
2026-04-25 20:06 24.46308 -111.09368 39537 ft 412 kts 311°
2026-04-25 20:06 24.48486 -111.11411 39742 ft 412 kts 311°
2026-04-25 20:06 24.50664 -111.13455 39942 ft 411 kts 311°
2026-04-25 20:07 24.55018 -111.17548 39964 ft 416 kts 311°
2026-04-25 20:07 24.59400 -111.21665 39961 ft 413 kts 311°
2026-04-25 20:08 24.63746 -111.25751 39958 ft 409 kts 311°
2026-04-25 20:08 24.68063 -111.29818 39971 ft 407 kts 311°
2026-04-25 20:09 24.72361 -111.33873 39973 ft 407 kts 311°
2026-04-25 20:09 24.76665 -111.37937 39972 ft 408 kts 311°
2026-04-25 20:10 24.80977 -111.42014 39979 ft 410 kts 311°
2026-04-25 20:10 24.85315 -111.46117 39976 ft 412 kts 311°
2026-04-25 20:11 24.89667 -111.50237 39978 ft 413 kts 311°
2026-04-25 20:11 24.94003 -111.54345 39984 ft 415 kts 311°
2026-04-25 20:12 24.98393 -111.58507 39978 ft 416 kts 311°
2026-04-25 20:12 25.01310 -111.61276 39986 ft 416 kts 311°
2026-04-25 20:13 25.07182 -111.66854 39978 ft 416 kts 311°
2026-04-25 20:13 25.11536 -111.70996 39982 ft 416 kts 311°
2026-04-25 20:14 25.15916 -111.75166 39985 ft 415 kts 311°
2026-04-25 20:14 25.20276 -111.79322 40009 ft 414 kts 311°
2026-04-25 20:15 25.24637 -111.83483 39996 ft 413 kts 310°
2026-04-25 20:15 25.29018 -111.87607 39991 ft 417 kts 315°
2026-04-25 20:16 25.34132 -111.90788 39993 ft 432 kts 327°
2026-04-25 20:16 25.39680 -111.93389 40002 ft 433 kts 327°
2026-04-25 20:17 25.45229 -111.95974 40000 ft 433 kts 327°
2026-04-25 20:17 25.50770 -111.98590 40008 ft 433 kts 327°
2026-04-25 20:18 25.56304 -112.01224 40005 ft 433 kts 327°
2026-04-25 20:18 25.61842 -112.03870 40002 ft 433 kts 327°
2026-04-25 20:19 25.67379 -112.06517 39999 ft 433 kts 327°
2026-04-25 20:19 25.72882 -112.09151 40021 ft 433 kts 327°
2026-04-25 20:20 25.78416 -112.11803 40006 ft 433 kts 327°
2026-04-25 20:20 25.83959 -112.14460 40008 ft 433 kts 327°
2026-04-25 20:21 25.89496 -112.17118 40003 ft 433 kts 327°
2026-04-25 20:21 25.95031 -112.19778 39996 ft 433 kts 327°
2026-04-25 20:22 25.98697 -112.21541 39998 ft 433 kts 327°
2026-04-25 20:22 26.06087 -112.25098 39993 ft 433 kts 327°
2026-04-25 20:23 26.11586 -112.27749 39986 ft 433 kts 327°
2026-04-25 20:23 26.17117 -112.30417 39989 ft 433 kts 327°
2026-04-25 20:24 26.22646 -112.33088 39987 ft 433 kts 327°
2026-04-25 20:24 26.28180 -112.35763 39984 ft 434 kts 327°
2026-04-25 20:25 26.33730 -112.38450 39981 ft 434 kts 327°
2026-04-25 20:25 26.39267 -112.41132 39989 ft 434 kts 327°
2026-04-25 20:26 26.44766 -112.43798 39976 ft 433 kts 327°
2026-04-25 20:26 26.50301 -112.46486 39982 ft 434 kts 327°
2026-04-25 20:27 26.55842 -112.49180 39977 ft 434 kts 327°
2026-04-25 20:27 26.61388 -112.51878 39965 ft 434 kts 327°
2026-04-25 20:28 26.66929 -112.54576 39956 ft 434 kts 327°
2026-04-25 20:28 26.71529 -112.56818 39950 ft 434 kts 327°
2026-04-25 20:29 26.77064 -112.59519 39974 ft 434 kts 326°
2026-04-25 20:29 26.82606 -112.62228 39969 ft 434 kts 326°
2026-04-25 20:30 26.88147 -112.64937 39965 ft 434 kts 327°
2026-04-25 20:30 26.93681 -112.67646 39974 ft 433 kts 326°
2026-04-25 20:31 26.99175 -112.70338 39960 ft 433 kts 326°
2026-04-25 20:31 27.04702 -112.73050 39975 ft 433 kts 326°
2026-04-25 20:32 27.10218 -112.75759 39964 ft 433 kts 326°
2026-04-25 20:32 27.15734 -112.78471 39985 ft 432 kts 326°
2026-04-25 20:33 27.21247 -112.81185 39966 ft 432 kts 326°
2026-04-25 20:33 27.25827 -112.83442 39956 ft 432 kts 326°
2026-04-25 20:34 27.32266 -112.86617 39969 ft 432 kts 326°
2026-04-25 20:34 27.37734 -112.89318 39959 ft 431 kts 326°
2026-04-25 20:35 27.43230 -112.92034 39952 ft 431 kts 326°
2026-04-25 20:35 27.48720 -112.94752 39958 ft 431 kts 326°
2026-04-25 20:36 27.54204 -112.97465 39971 ft 426 kts 325°
2026-04-25 20:36 27.59647 -113.00166 39955 ft 428 kts 325°
2026-04-25 20:37 27.65063 -113.02858 39957 ft 429 kts 325°
2026-04-25 20:37 27.70534 -113.05579 39964 ft 430 kts 325°
2026-04-25 20:38 27.76041 -113.08321 39944 ft 433 kts 325°
2026-04-25 20:38 27.81569 -113.11076 39997 ft 435 kts 325°
2026-04-25 20:39 27.87122 -113.13845 39972 ft 437 kts 325°
2026-04-25 20:39 27.91752 -113.16155 39960 ft 437 kts 325°
2026-04-25 20:40 27.98249 -113.19399 39954 ft 436 kts 325°
2026-04-25 20:40 28.03756 -113.22154 39945 ft 435 kts 325°
2026-04-25 20:41 28.09288 -113.24924 39964 ft 434 kts 324°
2026-04-25 20:41 28.14801 -113.27689 39959 ft 432 kts 324°
2026-04-25 20:42 28.20294 -113.30447 39955 ft 431 kts 324°
2026-04-25 20:42 28.25773 -113.33201 39941 ft 430 kts 324°
2026-04-25 20:43 28.31234 -113.35950 39961 ft 429 kts 324°
2026-04-25 20:43 28.36663 -113.38686 39956 ft 429 kts 324°
2026-04-25 20:44 28.42111 -113.41432 39951 ft 427 kts 324°
2026-04-25 20:44 28.47545 -113.44177 39923 ft 427 kts 324°
2026-04-25 20:45 28.52980 -113.46925 39938 ft 428 kts 324°
2026-04-25 20:45 28.58432 -113.49687 39962 ft 430 kts 324°
2026-04-25 20:46 28.63872 -113.52445 39951 ft 431 kts 324°
2026-04-25 20:46 28.69359 -113.55227 39944 ft 431 kts 324°
2026-04-25 20:47 28.74854 -113.58019 39942 ft 435 kts 324°
2026-04-25 20:47 28.80386 -113.60831 39986 ft 435 kts 324°
2026-04-25 20:48 28.85929 -113.63651 39965 ft 435 kts 323°
2026-04-25 20:48 28.91459 -113.66467 39933 ft 434 kts 323°
2026-04-25 20:49 28.96965 -113.69274 39938 ft 432 kts 323°
2026-04-25 20:49 29.02416 -113.72057 39940 ft 431 kts 323°
2026-04-25 20:50 29.07891 -113.74859 39936 ft 431 kts 323°
2026-04-25 20:50 29.13359 -113.77658 39932 ft 429 kts 323°
2026-04-25 20:51 29.18807 -113.80450 39946 ft 428 kts 323°
2026-04-25 20:51 29.24235 -113.83236 39926 ft 427 kts 323°
2026-04-25 20:52 29.28758 -113.85562 39922 ft 428 kts 323°
2026-04-25 20:52 29.35101 -113.88825 39929 ft 426 kts 322°
2026-04-25 20:53 29.40513 -113.91609 39916 ft 426 kts 322°
2026-04-25 20:53 29.45899 -113.94389 39909 ft 427 kts 322°
2026-04-25 20:54 29.51333 -113.97197 39889 ft 429 kts 322°
2026-04-25 20:54 29.56764 -114.00003 39916 ft 429 kts 322°
2026-04-25 20:55 29.62231 -114.02834 39891 ft 432 kts 322°
2026-04-25 20:55 29.67718 -114.05677 39893 ft 433 kts 322°
2026-04-25 20:56 29.73232 -114.08536 39895 ft 435 kts 322°
2026-04-25 20:56 29.78754 -114.11403 39916 ft 436 kts 322°
2026-04-25 20:57 29.84266 -114.14269 39896 ft 437 kts 322°
2026-04-25 20:57 29.89815 -114.17156 39875 ft 437 kts 322°
2026-04-25 20:58 29.95365 -114.20046 39877 ft 436 kts 322°
2026-04-25 20:58 30.00890 -114.22928 39894 ft 435 kts 322°
2026-04-25 20:59 30.06412 -114.25813 39876 ft 435 kts 322°
2026-04-25 20:59 30.11884 -114.28676 39870 ft 434 kts 322°
2026-04-25 21:00 30.15565 -114.30604 39865 ft 434 kts 322°
2026-04-25 21:01 30.25619 -114.35877 39890 ft 432 kts 321°
2026-04-25 21:01 30.31107 -114.38762 39856 ft 433 kts 321°
2026-04-25 21:02 30.36602 -114.41653 39856 ft 433 kts 321°
2026-04-25 21:02 30.42055 -114.44526 39858 ft 434 kts 321°
2026-04-25 21:03 30.47560 -114.47429 39859 ft 435 kts 321°
2026-04-25 21:03 30.53080 -114.50345 39863 ft 437 kts 321°
2026-04-25 21:04 30.58613 -114.53271 39856 ft 438 kts 321°
2026-04-25 21:04 30.64178 -114.56215 39859 ft 439 kts 321°
2026-04-25 21:05 30.69698 -114.59141 39859 ft 439 kts 321°
2026-04-25 21:05 30.75268 -114.62096 39864 ft 440 kts 321°
2026-04-25 21:06 30.80846 -114.65060 39863 ft 441 kts 321°
2026-04-25 21:06 30.86425 -114.68027 39860 ft 441 kts 321°
2026-04-25 21:07 30.92001 -114.70997 39860 ft 440 kts 321°
2026-04-25 21:07 30.97570 -114.73966 39860 ft 440 kts 321°
2026-04-25 21:08 31.03099 -114.76919 39857 ft 439 kts 321°
2026-04-25 21:08 31.08665 -114.79895 39857 ft 439 kts 321°
2026-04-25 21:09 31.16978 -114.84348 39883 ft 438 kts 321°
2026-04-25 21:09 31.22523 -114.87324 39859 ft 438 kts 321°
2026-04-25 21:10 31.28069 -114.90304 39852 ft 438 kts 321°
2026-04-25 21:10 31.33612 -114.93285 39852 ft 438 kts 321°
2026-04-25 21:11 31.39145 -114.96265 39851 ft 438 kts 321°
2026-04-25 21:11 31.44654 -114.99237 39855 ft 439 kts 321°
2026-04-25 21:12 31.50239 -115.02254 39833 ft 439 kts 321°
2026-04-25 21:12 31.53917 -115.04242 39842 ft 440 kts 321°
2026-04-25 21:13 31.61322 -115.08251 39843 ft 441 kts 321°
2026-04-25 21:13 31.66899 -115.11276 39838 ft 443 kts 321°
2026-04-25 21:14 31.72499 -115.14316 39844 ft 443 kts 321°
2026-04-25 21:14 31.78105 -115.17362 39841 ft 444 kts 321°
2026-04-25 21:15 31.83717 -115.20417 39838 ft 445 kts 321°
2026-04-25 21:15 31.88394 -115.22967 39842 ft 446 kts 322°
2026-04-25 21:16 31.94029 -115.26040 39837 ft 446 kts 322°
2026-04-25 21:16 31.99654 -115.29112 39836 ft 445 kts 322°
2026-04-25 21:17 32.05277 -115.32189 39834 ft 445 kts 322°
2026-04-25 21:17 32.10904 -115.35273 39847 ft 446 kts 322°
2026-04-25 21:18 32.16536 -115.38362 39840 ft 445 kts 322°
2026-04-25 21:18 32.22128 -115.41434 39841 ft 445 kts 322°
2026-04-25 21:19 32.27728 -115.44513 39848 ft 443 kts 322°
2026-04-25 21:19 32.33312 -115.47590 39850 ft 442 kts 322°
2026-04-25 21:20 32.37945 -115.50147 39838 ft 442 kts 322°
2026-04-25 21:20 32.44463 -115.53748 39853 ft 442 kts 322°
2026-04-25 21:21 32.50031 -115.56829 39851 ft 442 kts 322°
2026-04-25 21:21 32.55599 -115.59914 39860 ft 442 kts 322°
2026-04-25 21:22 32.61163 -115.63007 39857 ft 439 kts 320°
2026-04-25 21:22 32.63709 -115.64866 39872 ft 420 kts 309°
2026-04-25 21:22 32.65856 -115.67123 39879 ft 407 kts 301°
2026-04-25 21:23 32.67660 -115.69644 39869 ft 394 kts 292°
2026-04-25 21:23 32.69119 -115.72360 39878 ft 390 kts 291°
2026-04-25 21:23 32.71954 -115.77823 39905 ft 392 kts 291°
2026-04-25 21:24 32.74838 -115.83368 39885 ft 396 kts 291°
2026-04-25 21:24 32.77759 -115.88947 39880 ft 398 kts 291°
2026-04-25 21:25 32.80699 -115.94551 39887 ft 400 kts 291°
2026-04-25 21:25 32.83643 -116.00165 39891 ft 400 kts 291°
2026-04-25 21:26 32.86562 -116.05742 39902 ft 399 kts 291°
2026-04-25 21:26 32.89498 -116.11360 39923 ft 400 kts 291°
2026-04-25 21:27 32.92436 -116.16995 39902 ft 401 kts 291°
2026-04-25 21:27 32.95377 -116.22638 39913 ft 401 kts 291°
2026-04-25 21:28 32.98316 -116.28290 39910 ft 400 kts 291°
2026-04-25 21:28 33.01245 -116.33931 39915 ft 401 kts 291°
2026-04-25 21:29 33.04178 -116.39588 39920 ft 401 kts 291°
2026-04-25 21:29 33.07105 -116.45243 39904 ft 400 kts 291°
2026-04-25 21:30 33.10019 -116.50879 39926 ft 399 kts 291°
2026-04-25 21:30 33.12410 -116.55569 39916 ft 394 kts 287°
2026-04-25 21:31 33.13811 -116.59481 39799 ft 381 kts 280°
2026-04-25 21:31 33.14513 -116.62478 39401 ft 369 kts 272°
2026-04-25 21:31 33.14908 -116.65503 38752 ft 369 kts 271°
2026-04-25 21:31 33.15269 -116.68547 37866 ft 373 kts 271°
2026-04-25 21:32 33.15632 -116.71638 36914 ft 377 kts 271°
2026-04-25 21:32 33.16003 -116.74763 36027 ft 381 kts 271°
2026-04-25 21:32 33.16376 -116.77858 35204 ft 383 kts 271°
2026-04-25 21:32 33.16761 -116.81021 34349 ft 385 kts 271°
2026-04-25 21:33 33.17149 -116.84201 33428 ft 388 kts 271°
2026-04-25 21:33 33.17540 -116.87406 32362 ft 393 kts 271°
2026-04-25 21:33 33.17934 -116.90633 31561 ft 392 kts 272°
2026-04-25 21:33 33.18327 -116.93847 30785 ft 390 kts 272°
2026-04-25 21:34 33.18718 -116.97054 30077 ft 389 kts 272°
2026-04-25 21:34 33.19104 -117.00236 29292 ft 386 kts 272°
2026-04-25 21:34 33.19481 -117.03355 28562 ft 382 kts 272°
2026-04-25 21:34 33.19853 -117.06482 27824 ft 379 kts 272°
2026-04-25 21:35 33.20221 -117.09598 27089 ft 378 kts 272°
2026-04-25 21:35 33.20591 -117.12697 26398 ft 376 kts 272°
2026-04-25 21:35 33.20968 -117.15773 25712 ft 373 kts 273°
2026-04-25 21:35 33.21344 -117.18833 25030 ft 371 kts 272°
2026-04-25 21:36 33.21716 -117.21871 24392 ft 368 kts 272°
2026-04-25 21:36 33.22082 -117.24890 23743 ft 366 kts 272°
2026-04-25 21:36 33.22443 -117.27894 22994 ft 365 kts 272°
2026-04-25 21:36 33.22800 -117.30878 22305 ft 361 kts 272°
2026-04-25 21:37 33.23152 -117.33819 21685 ft 356 kts 272°
2026-04-25 21:37 33.23382 -117.35750 21277 ft 353 kts 272°
2026-04-25 21:37 33.23842 -117.39613 20454 ft 348 kts 272°
2026-04-25 21:37 33.24181 -117.42461 19854 ft 345 kts 272°
2026-04-25 21:38 33.24520 -117.45290 19265 ft 342 kts 272°
2026-04-25 21:38 33.24852 -117.48060 18731 ft 339 kts 272°
2026-04-25 21:38 33.25184 -117.50836 18184 ft 337 kts 272°
2026-04-25 21:38 33.25557 -117.53589 17559 ft 336 kts 276°
2026-04-25 21:39 33.26075 -117.56305 16932 ft 333 kts 277°
2026-04-25 21:39 33.26632 -117.58981 16327 ft 331 kts 278°
2026-04-25 21:39 33.27197 -117.61639 15740 ft 329 kts 278°
2026-04-25 21:39 33.27766 -117.64271 15202 ft 325 kts 278°
2026-04-25 21:40 33.28336 -117.66873 14639 ft 322 kts 278°
2026-04-25 21:40 33.28910 -117.69453 14066 ft 320 kts 278°
2026-04-25 21:40 33.29486 -117.72013 13470 ft 317 kts 278°
2026-04-25 21:40 33.30059 -117.74553 12807 ft 315 kts 278°
2026-04-25 21:41 33.30617 -117.77088 12122 ft 315 kts 278°
2026-04-25 21:41 33.31153 -117.79628 11445 ft 315 kts 278°
2026-04-25 21:41 33.31667 -117.82178 10797 ft 315 kts 278°
2026-04-25 21:41 33.32153 -117.84692 10439 ft 301 kts 278°
2026-04-25 21:42 33.32603 -117.87034 10269 ft 278 kts 278°
2026-04-25 21:42 33.33029 -117.89269 10016 ft 278 kts 278°
2026-04-25 21:42 33.33442 -117.91492 9977 ft 274 kts 278°
2026-04-25 21:42 33.34027 -117.93657 9959 ft 272 kts 296°
2026-04-25 21:43 33.35317 -117.95287 9973 ft 282 kts 322°
2026-04-25 21:43 33.37144 -117.96225 9964 ft 290 kts 344°
2026-04-25 21:43 33.39163 -117.96362 9831 ft 290 kts 358°
2026-04-25 21:43 33.41180 -117.96264 9406 ft 290 kts
2026-04-25 21:44 33.43180 -117.96126 9115 ft 285 kts
2026-04-25 21:44 33.45163 -117.95989 8623 ft 287 kts
2026-04-25 21:44 33.49158 -117.95737 7796 ft 286 kts
2026-04-25 21:45 33.51135 -117.95621 7424 ft 283 kts
2026-04-25 21:45 33.52438 -117.95546 7192 ft 282 kts
2026-04-25 21:45 33.55035 -117.95401 6716 ft 279 kts
2026-04-25 21:45 33.56965 -117.95295 6406 ft 275 kts
2026-04-25 21:46 33.58866 -117.95191 6059 ft 273 kts
2026-04-25 21:46 33.60730 -117.95089 5897 ft 264 kts
2026-04-25 21:46 33.62516 -117.94991 5718 ft 249 kts
2026-04-25 21:46 33.64219 -117.94898 5430 ft 241 kts
2026-04-25 21:47 33.65869 -117.94809 5071 ft 237 kts
2026-04-25 21:47 33.67478 -117.94722 5008 ft 229 kts
2026-04-25 21:47 33.69101 -117.94629 4999 ft 238 kts
2026-04-25 21:47 33.70696 -117.94046 4993 ft 241 kts 28°
2026-04-25 21:48 33.72168 -117.93087 4979 ft 241 kts 29°
2026-04-25 21:48 33.73648 -117.92120 4983 ft 243 kts 29°
2026-04-25 21:48 33.75153 -117.91162 4963 ft 246 kts 28°
2026-04-25 21:48 33.76659 -117.90209 4998 ft 248 kts 28°
2026-04-25 21:49 33.78169 -117.89258 4860 ft 242 kts 28°
2026-04-25 21:49 33.79664 -117.88325 4464 ft 240 kts 28°
2026-04-25 21:49 33.81129 -117.87412 4108 ft 236 kts 28°
2026-04-25 21:49 33.82595 -117.86491 3993 ft 236 kts 28°
2026-04-25 21:50 33.84048 -117.85567 3985 ft 236 kts 28°
2026-04-25 21:50 33.85509 -117.84621 3978 ft 240 kts 32°
2026-04-25 21:50 33.86651 -117.83209 3961 ft 235 kts 65°
2026-04-25 21:50 33.86970 -117.81990 3968 ft 229 kts 89°
2026-04-25 21:51 33.86435 -117.79646 3935 ft 216 kts 132°
2026-04-25 21:51 33.85254 -117.78640 3637 ft 206 kts 166°
2026-04-25 21:51 33.83873 -117.78584 3353 ft 196 kts 189°
2026-04-25 21:51 33.82540 -117.78818 3094 ft 189 kts 191°
2026-04-25 21:52 33.81281 -117.79069 2862 ft 183 kts 195°
2026-04-25 21:52 33.80117 -117.79643 2642 ft 177 kts 205°
2026-04-25 21:52 33.79019 -117.80240 2371 ft 168 kts 205°
2026-04-25 21:52 33.77998 -117.80791 2163 ft 156 kts 205°
2026-04-25 21:53 33.77030 -117.81304 1992 ft 153 kts 205°
2026-04-25 21:53 33.76054 -117.81816 1776 ft 154 kts 205°
2026-04-25 21:53 33.75084 -117.82320 1554 ft 151 kts 205°
2026-04-25 21:53 33.74116 -117.82778 1388 ft 148 kts 205°
2026-04-25 21:54 33.73182 -117.83328 1225 ft 149 kts 206°
2026-04-25 21:54 33.72293 -117.83887 989 ft 137 kts 210°
2026-04-25 21:54 33.71479 -117.84403 829 ft 127 kts 208°
2026-04-25 21:54 33.70717 -117.84886 666 ft 120 kts 210°
2026-04-25 21:55 33.69969 -117.85364 477 ft 125 kts 209°
2026-04-25 21:55 33.69203 -117.85864 330 ft 124 kts 208°
2026-04-25 21:55 33.68453 -117.86322 159 ft 120 kts 206°
2026-04-25 21:55 33.67746 -117.86774 56 ft 123 kts 207°
2026-04-25 21:56 33.67171 -117.87138 49 ft 44 kts 207°
2026-04-25 21:56 33.67019 -117.87225 47 ft 25 kts 190°
2026-04-25 21:56 33.66933 -117.87074 50 ft 19 kts 40°
2026-04-25 21:56 33.67032 -117.86972 50 ft 18 kts 40°
2026-04-25 21:57 33.67127 -117.86878 48 ft 18 kts 33°
2026-04-25 21:57 33.67230 -117.86802 50 ft 17 kts 30°
2026-04-25 21:57 33.67321 -117.86717 47 ft 16 kts 45°
2026-04-25 21:57 33.67415 -117.86647 49 ft 16 kts 27°
2026-04-25 21:58 33.67509 -117.86588 50 ft 10 kts 27°
2026-04-25 21:58 33.67564 -117.86554 50 ft 15 kts 27°
2026-04-25 21:58 33.67659 -117.86495 50 ft 15 kts 27°
2026-04-25 21:58 33.67751 -117.86439 50 ft 15 kts 27°
2026-04-25 21:59 33.67767 -117.86374 50 ft 9 kts 118°
2026-04-25 21:59 33.67752 -117.86340 50 ft 1 kts 118°